EHI
98 98 98 97 93 82 66 47 37 40 40 40 49 58 53 31 13 16 29 34 23 12 7 3 1 2 4 4 1 0 0 0 0 0 0 0 0 0 0 0 0 0 0
97 97 98 98 94 87 77 67 62 56 47 48 61 70 70 55 35 37 49 43 25 12 5 2 1 4 10 11 5 0 0 0 0 0 0 0 0 0 0 0 0 0 0
95 96 98 99 97 94 91 88 87 79 60 51 58 70 76 75 66 65 73 64 36 17 7 2 1 8 24 29 16 3 0 0 0 0 0 0 0 0 0 0 0 0 0
93 95 97 99 99 98 96 93 87 76 57 43 50 62 65 74 82 84 88 81 52 23 12 13 15 24 44 50 30 10 3 0 0 0 0 0 0 0 0 0 0 0 0
88 93 98 100 99 95 89 78 62 46 32 34 54 69 70 79 90 94 94 86 59 32 27 40 45 43 51 56 44 27 11 3 1 0 0 0 0 0 0 0 0 0 0
83 91 96 97 93 83 67 47 31 20 16 27 54 75 81 83 88 90 86 74 52 36 38 48 48 37 32 42 47 36 20 9 3 1 1 1 0 0 0 0 0 0 0
80 84 86 83 73 56 36 20 11 8 9 19 37 55 62 60 60 63 59 46 31 25 25 24 20 14 12 21 32 30 20 13 6 2 1 1 1 1 0 0 0 0 0
65 62 61 55 41 24 13 6 3 2 3 9 16 23 25 23 23 26 25 19 11 7 5 3 1 1 2 6 14 17 15 12 7 2 0 1 2 2 0 0 0 0 0
37 32 30 28 19 9 4 1 1 0 0 2 3 4 4 4 4 5 6 5 2 0 0 0 0 0 0 2 5 8 8 6 4 3 2 2 2 1 0 0 0 0 0
16 12 10 12 11 5 1 0 0 0 0 0 0 0 0 0 0 0 1 1 0 0 0 0 0 0 0 1 2 3 3 2 2 3 3 2 1 1 0 0 0 0 0
7 5 3 4 4 2 0 0 0 0 0 0 0 0 0 0 0 0 0 0 0 0 0 0 0 0 0 0 0 1 1 1 1 2 2 1 0 1 0 0 0 0 0
1 1 0 0 0 0 0 0 0 0 0 0 0 0 0 0 0 0 0 0 0 0 0 0 0 0 0 0 0 0 0 0 0 0 0 0 0 0 0 0 0 0 0
0 0 0 0 0 0 0 0 0 0 0 0 0 0 0 0 0 0 0 0 0 0 0 0 0 0 0 0 0 0 0 0 0 0 0 0 0 0 0 0 0 0 0
0 0 0 0 0 0 0 0 0 0 0 0 0 0 0 0 0 0 0 0 0 0 0 0 0 0 0 0 0 0 0 0 0 0 0 0 0 0 0 0 0 0 0
0 0 0 0 0 0 0 0 0 0 0 0 0 0 0 0 0 0 0 0 0 0 0 0 0 0 0 0 0 0 0 0 0 0 0 0 0 0 0 0 0 0 0
0 0 0 0 0 0 0 0 0 0 0 0 0 0 0 0 0 0 0 0 0 0 0 0 0 0 0 0 0 0 0 0 0 0 0 0 0 0 0 0 0 0 0
0 0 0 0 0 0 0 0 0 0 0 0 0 0 0 0 0 0 0 0 0 0 0 0 0 0 0 0 0 0 0 0 0 0 0 0 0 0 0 0 0 0 0
0 0 0 0 0 0 0 0 0 0 0 0 0 0 0 0 0 0 0 0 0 0 0 0 0 0 0 0 0 0 0 0 0 0 0 0 0 0 0 0 0 0 0
0 0 0 0 0 0 0 0 0 0 0 0 0 0 0 0 0 0 0 0 0 0 0 0 0 0 0 0 0 0 0 0 0 0 0 0 0 0 0 0 0 0 0
0 0 0 0 0 0 0 0 0 0 0 0 0 0 0 0 0 0 0 0 0 0 0 0 0 0 0 0 0 0 0 0 0 0 0 0 0 0 0 0 0 0 0
0 0 0 0 0 0 0 0 0 0 0 0 0 0 0 0 0 0 0 0 0 0 0 0 0 0 0 0 0 0 0 0 0 0 0 0 0 0 0 0 0 0 0
0 0 0 0 0 0 0 0 0 0 0 0 0 0 0 0 0 0 0 0 0 0 0 0 0 0 0 0 0 0 0 0 0 0 0 0 0 0 0 0 0 0 0
0 0 0 0 0 0 0 0 0 0 0 0 0 0 0 0 0 0 0 0 0 0 0 0 0 0 0 0 0 0 0 0 0 0 0 0 0 0 0 0 0 0 0
0 0 0 0 0 0 0 0 0 0 0 0 0 0 0 0 0 0 0 0 0 0 0 0 0 0 0 0 0 0 0 0 0 0 0 0 0 0 0 0 0 0 0
0 0 0 0 0 0 0 0 0 0 0 0 0 0 0 0 0 0 0 0 0 0 0 0 0 0 0 0 0 0 0 0 0 0 0 0 0 0 0 0 0 0 0
0 0 0 0 0 0 0 0 0 0 0 0 0 0 0 0 0 0 0 0 0 0 0 0 0 0 0 0 0 0 0 0 0 0 0 0 0 0 0 0 0 0 0
Wind_Speed
12 12 12 12 13 12 11 9 8 6 3 4 4 4 4 4 4 4 4 4 4 2 1 1 1 2 1 1 1 1 2 2 2 1 1 1 0 1 3 4 4 4 3
12 12 11 11 12 11 10 8 7 8 6 4 2 2 2 3 4 4 4 4 3 2 3 4 3 3 2 2 2 2 2 1 3 2 2 2 2 1 6 5 5 6 5
13 12 11 9 10 10 8 5 3 5 4 2 2 2 1 3 3 3 3 4 4 4 3 3 3 3 3 2 3 4 4 3 2 2 0 1 1 3 4 5 6 6 6
14 14 12 9 8 9 9 8 6 4 2 1 4 4 4 4 4 3 2 3 3 3 3 4 4 3 2 3 4 5 3 3 1 2 1 2 2 1 3 2 3 5 5
15 14 12 9 9 10 10 8 6 2 1 2 3 3 3 2 2 2 2 0 1 2 3 2 2 2 2 3 4 3 4 2 1 1 0 1 0 2 3 2 0 1 2
14 11 9 9 9 10 9 8 6 3 1 1 2 4 4 4 4 4 3 2 1 1 4 5 4 3 3 3 3 3 4 2 1 1 2 1 1 2 2 3 2 2 3
14 12 11 10 10 10 9 8 6 4 4 4 5 5 5 3 4 4 3 3 3 4 7 6 5 4 4 4 3 4 4 4 3 2 2 1 1 1 2 2 2 2 3
9 11 12 11 10 10 9 8 7 5 4 5 5 6 5 3 4 5 4 3 3 4 5 6 5 6 5 4 3 3 4 4 4 3 2 1 1 1 1 2 1 1 2
10 10 10 10 8 9 9 8 7 6 5 5 6 5 6 6 5 5 5 5 4 3 4 6 5 5 4 3 2 2 3 3 4 4 4 2 1 1 1 1 2 2 1
10 10 9 8 7 7 7 8 7 6 6 5 5 5 5 5 5 5 5 4 3 2 3 4 5 5 5 4 3 2 3 3 3 2 3 3 2 1 2 2 1 2 3
11 9 8 8 7 7 6 6 6 6 6 7 7 5 4 4 4 3 4 3 2 2 4 4 4 3 3 3 3 3 3 3 4 4 4 4 4 2 2 2 2 3 3
9 8 7 6 6 5 5 5 5 6 6 6 6 5 4 3 4 4 4 4 6 8 8 7 6 4 3 4 5 5 4 2 3 4 4 3 2 3 3 0 2 4 5
7 7 6 5 4 4 3 4 5 6 5 4 4 4 4 4 4 5 6 6 7 7 6 5 5 5 6 6 6 7 6 5 4 3 3 3 3 2 1 2 3 3 4
6 6 4 3 2 2 2 2 3 4 4 3 3 3 1 1 2 3 4 4 4 4 5 5 6 7 9 8 8 8 8 8 9 9 10 9 8 6 5 4 4 4 4
5 5 4 2 1 1 1 2 3 5 6 5 5 4 3 2 1 3 3 4 4 5 6 7 7 7 8 8 7 8 9 9 9 9 9 10 10 10 7 4 3 3 3
3 4 4 5 4 3 2 2 2 3 5 5 4 3 2 2 3 3 3 4 4 5 6 7 7 8 9 11 10 8 9 8 8 8 7 7 9 8 8 9 8 7 4
1 2 4 5 5 5 4 4 3 2 3 4 3 3 2 2 2 2 2 1 1 3 5 6 6 5 7 12 14 12 8 8 7 7 6 7 7 9 7 6 6 8 9
8 5 2 3 6 7 6 5 3 2 1 1 3 4 4 4 4 4 3 1 1 3 4 5 4 4 5 9 13 12 7 6 6 6 6 7 7 8 8 5 4 5 5
5 6 6 4 2 6 8 8 7 6 6 6 6 6 6 5 4 3 3 3 1 2 4 4 5 4 3 6 9 9 2 4 6 6 7 7 6 9 11 5 4 4 3
2 5 7 7 4 1 4 6 7 5 3 2 4 5 4 4 4 4 4 2 0 1 2 3 4 5 3 3 6 8 2 4 4 4 4 8 6 7 10 7 6 5 4
2 2 4 5 4 4 3 1 2 1 1 4 5 4 6 6 5 5 3 2 3 1 2 1 1 4 5 2 3 7 5 5 2 3 3 3 4 4 6 6 4 3 4
2 3 1 1 1 1 2 2 1 3 6 6 4 2 2 2 3 4 3 3 3 2 2 3 3 2 4 4 3 3 3 3 4 3 3 2 1 2 5 5 5 7 6
2 4 5 5 5 5 4 2 3 3 4 4 3 2 3 3 1 3 3 4 4 4 3 4 4 3 4 5 6 4 2 0 2 2 0 1 4 5 6 9 11 7 4
5 6 8 8 7 8 8 6 5 6 5 3 2 2 2 4 3 2 3 5 4 5 4 2 2 1 3 4 3 3 3 3 2 3 4 7 10 9 8 7 6 6 4
6 6 6 6 5 5 5 5 6 7 8 6 3 1 1 3 4 5 4 2 4 3 2 4 4 4 4 3 3 1 1 1 1 2 3 3 4 4 4 5 5 4 4
5 5 6 6 7 7 6 4 4 4 5 4 3 2 2 3 4 6 4 5 5 7 8 5 3 4 6 4 4 4 2 2 2 1 2 4 6 5 4 3 3 3 1
Wind_Direction
182 180 185 169 148 142 149 157 172 170 205 224 211 216 212 215 210 205 210 198 208 229 167 286 255 279 270 151 156 211 223 199 159 204 234 231 348 50 37 359 339 338 334
187 192 190 177 164 159 162 166 182 169 193 230 228 246 247 243 230 212 185 209 205 219 231 209 219 233 221 177 168 215 265 247 181 209 253 233 225 142 45 21 16 17 26
179 188 192 182 168 161 158 160 144 141 176 281 266 222 241 269 258 224 180 207 222 223 242 235 230 230 221 196 201 210 220 248 207 158 118 283 262 125 58 30 31 33 41
183 186 189 183 161 141 114 94 84 72 68 283 272 265 247 251 262 254 180 180 214 252 251 232 243 240 214 194 213 209 220 232 216 129 194 231 242 131 110 42 32 42 46
188 184 179 165 137 124 115 105 95 104 168 269 306 310 285 309 341 11 77 244 233 265 294 319 321 286 244 206 223 208 215 223 185 167 127 325 298 14 115 126 6 75 73
179 172 155 134 114 112 108 106 113 124 124 66 34 32 43 45 46 43 41 356 348 11 34 12 2 314 273 244 223 215 202 224 162 111 102 65 19 34 85 134 182 156 155
155 149 137 124 117 114 113 112 118 106 82 73 63 55 55 62 58 33 41 7 7 17 28 4 337 314 290 260 226 221 218 194 191 180 138 120 27 42 87 130 181 184 160
145 148 142 136 134 131 126 120 123 123 112 91 69 52 28 33 55 41 12 46 32 17 357 328 308 298 288 274 245 225 223 205 198 197 167 156 256 7 103 160 190 228 198
143 146 145 141 138 137 137 134 135 133 118 99 84 64 54 47 40 31 25 49 39 1 340 325 336 329 317 306 282 246 237 225 214 203 189 196 233 321 341 227 204 218 218
118 109 101 102 98 105 122 126 122 111 105 101 87 80 67 64 56 49 47 41 37 8 344 11 7 6 17 5 333 283 261 233 227 213 184 182 198 253 294 304 286 260 237
94 93 94 92 90 90 98 107 107 98 76 71 68 59 64 75 77 67 62 53 31 33 34 21 358 359 12 5 344 320 277 234 216 207 201 197 189 203 248 288 343 327 287
75 71 70 80 89 91 96 98 96 88 76 69 64 45 31 50 66 63 54 46 36 36 33 19 3 357 23 22 359 345 341 294 233 226 226 224 206 210 233 236 22 0 346
91 84 70 55 55 61 78 87 94 97 87 80 72 53 30 31 29 30 34 41 47 46 37 26 15 8 23 37 20 12 6 16 26 38 54 50 54 66 55 80 75 59 4
117 115 105 83 66 69 73 84 107 129 140 148 143 135 122 55 37 47 45 46 61 63 48 32 27 40 38 34 31 32 34 46 48 50 53 49 44 39 40 58 69 82 75
142 146 152 158 154 148 177 199 176 178 176 169 156 152 145 127 71 69 66 40 34 58 57 45 33 46 53 38 48 59 58 58 58 56 56 52 47 39 34 42 52 69 93
169 182 190 187 185 188 201 211 166 145 132 129 123 100 73 72 58 63 74 58 39 42 65 65 51 46 51 31 43 74 73 68 63 61 62 62 44 33 42 47 56 61 74
329 233 203 184 181 180 170 158 146 119 123 131 135 140 148 132 94 54 46 68 97 93 88 85 78 65 34 23 25 41 75 75 72 67 62 60 50 30 17 29 61 70 62
15 6 342 190 180 169 154 143 126 77 74 182 191 194 186 177 179 183 183 157 89 120 121 114 103 88 52 27 22 16 65 65 65 63 65 68 56 31 5 359 39 52 48
11 3 357 352 187 170 169 172 174 182 196 206 217 215 207 202 197 153 120 107 98 139 138 132 127 98 67 45 33 14 80 95 78 65 53 61 58 22 1 355 32 47 56
32 2 353 3 8 249 207 194 177 168 186 229 247 238 233 220 189 142 139 136 263 297 115 124 130 130 111 50 27 3 357 119 122 118 96 75 67 28 14 6 8 13 6
102 28 356 1 1 353 336 323 70 59 278 250 249 212 221 221 169 147 146 173 244 356 37 39 127 141 145 135 47 35 36 21 24 142 115 92 74 35 357 334 333 340 313
169 154 135 41 344 240 219 219 239 286 271 259 254 249 247 238 139 143 176 217 233 214 251 275 282 186 164 163 148 98 65 26 5 45 92 125 144 315 306 306 307 311 304
70 67 70 65 46 33 35 105 157 248 287 306 292 283 316 317 150 154 198 236 239 246 236 228 241 230 174 159 173 189 199 271 341 19 29 235 248 275 275 258 270 286 281
68 69 70 64 45 29 28 21 5 351 345 340 343 33 6 314 313 289 232 224 227 231 247 256 262 23 97 137 164 200 217 229 260 274 243 243 261 262 278 292 258 241 239
93 105 108 107 97 75 44 7 343 329 319 315 319 351 2 323 324 313 320 355 62 72 54 20 13 55 82 65 67 41 143 103 84 330 329 307 292 273 241 241 225 210 198
130 141 151 156 156 154 161 194 242 275 297 307 342 350 19 35 6 340 341 47 101 97 91 84 67 72 86 81 45 42 59 74 57 2 309 295 287 281 285 315 324 308 282